STARLINK-30098, 56292

Orbit data source: Space-Track

STARLINK-30098, 56292 is a payload satellite owned by SpaceX/Seattle (US) in LEO that was launched on Wed, 19 Apr 2023 UTC via an FALCON 9 launch vehicle from the Air Force Eastern Test Range (AFETR). Payload-class satellites include a variety of spacecraft equipped with specific instruments for various scientific and technological missions. These include communications satellites like Starlink; space stations such as the ISS; scientific satellites like the Hubble; Earth observation satellites from companies like Planet Labs, Umbra, and HawkEye 360; GPS; miniature CubeSats for education and research; and military/defense satellites.

Loading next visibility...
Identifier
56292, 2023-056G
Orbit
LEO
Country
Flag of USUS
Related business
Manufacturer
SpaceX/Seattle
Mission
Operational Commercial Communications
Bus & Motor
STARLINK V2M, Unknown motor
Mass
730 kg wet, ~700 kg dry
Launch date (UTC)
2023-04-19 (3 years ago)
Launch vehicle
FALCON 9
Launch site
Air Force Eastern Test Range (AFETR)
Object type
Payload
Rocket body
Debris
Shape & HBR
Box + 2 Pan, 17.7 m
Radar Cross Section
33.884 m², Large (>1 m²)

Expand to show TLE details & history
Last TLE update: 2 days ago

TLE from 2 days ago
0 STARLINK-30098
1 56292U 23056G   26171.18002810  .00000499  00000-0  27667-4 0  9991
2 56292  43.0026 350.1748 0001189 286.6137  73.4584 15.27577085175710
Epoch: 2026-06-20T04:19Z
TLE epoch observation values (Epoch: 2026-06-20T04:19:14.427Z)
Latitude
-0.00004°
Longitude
16.96629°
Altitude
482.601 km
Speed
7.626 km/s
True Right ascension
23h 20m 41s
True Declination
0° 00' 00"
Sunlit
Object was in daylight at epoch
Visualization orbit readout
Latitude
Unknown
Longitude
Unknown
Altitude
Unknown
Speed
Unknown
Apparent Right ascension
Unknown
Apparent Declination
Unknown
Sunlit
N/A
Visualization observer readout
Local Sidereal Time
21:47:27
Azimuth
Unknown
Elevation
Unknown
Doppler factor
Unknown
Orbital elements
Apogee altitude
485.819 km
Perigee altitude
484.187 km
Semi-major axis
6,863.14 km
Eccentricity
0.00012
Inclination
43.0026°
RAAN
350.1748°
Arg. of periapsis
286.6137°
True anomaly
73.47146°
Mean anomaly
73.4584°
Eccentric anomaly
73.46493°
Mean motion
3.81732 °/min
Orbital period
94.31 mins
BSTAR
0.000027667
Loading maneuver chart data...
Computing Atmospheric mass density...
Loading historical data...
Loading historical data...
Loading historical data...
Loading historical data...
Loading historical data...
Loading historical data...
Loading historical data...

Documentation

Showing up to 5 results
|